Location: Oberkirch
(48.5323°N, 8.0787°E)
Time: 17:41:31
(UTC+00:00)

Cosmos 44 Rocket - Pass Details

Date: 08 November 2025
Orbit: 637 x 741 km, 65.1° (Epoch: 09 December)

Event Time Altitude Azimuth Distance (km) Brightness Sun altitude
Exits shadow 04:05:08 55° 314° (NW) 879 3.5 -23.3°
Maximum altitude 04:06:16 83° 234° (SW) 746 3.3 -23.1°
Drops below altitude 10° 04:11:25 10° 147° (SSE) 2,245 6.3 -22.3°
Sets 04:13:48 0° 146° (SSE) 3,166 7.2 -21.9°
